Simultaneous Nadir Overpasses (SNOs) Predictions

Prediction of SNOs between AQUA and METOP-B Satellite Orbit:

Table of predicted SNOs for the next 14.0 days since TLE Epoch: 10/22/2022
Index Date (AQUA) Time (AQUA) Lat,Lon (AQUA) SZA (AQUA ) Date (METOP-B) Time (METOP-B) Lat,Lon (METOP-B) SZA (METOP-B ) Distance(km) Time Diff (sec)
1 10/23/2022 23:43:53 -74.02, -0.89 94.41 10/23/2022 23:42:41 -74.02, -0.97 94.40 2.55 72
2 10/24/2022 00:33:22 74.13, 166.50 85.72 10/24/2022 00:33:19 74.10, 166.55 85.69 3.36 3
3 10/24/2022 01:22:47 -74.14, -25.88 94.26 10/24/2022 01:24:00 -74.15, -25.99 94.25 3.71 73
4 10/26/2022 18:27:38 73.67,-101.07 86.21 10/26/2022 18:26:29 73.64,-102.80 86.19 54.23 69
5 10/26/2022 19:17:11 -74.10, 65.62 93.36 10/26/2022 19:17:02 -74.10, 65.62 93.36 0.35 9
6 10/26/2022 20:06:39 74.16,-126.87 86.72 10/26/2022 20:07:40 74.17,-126.86 86.73 1.30 61
7 10/29/2022 13:11:24 -73.47, 158.43 93.07 10/29/2022 13:10:18 -73.39, 155.70 93.13 87.06 66
8 10/29/2022 14:01:03 74.10, -35.33 87.58 10/29/2022 14:00:43 74.11, -35.28 87.59 1.77 20
9 10/29/2022 14:50:29 -74.16, 132.17 92.35 10/29/2022 14:51:24 -74.16, 132.19 92.35 0.55 55
10 11/01/2022 08:44:52 -74.09,-136.24 91.53 11/01/2022 08:44:27 -74.10,-136.23 91.53 0.82 25
11 11/01/2022 09:34:20 74.15, 31.25 88.55 11/01/2022 09:35:05 74.16, 31.28 88.56 1.36 45
12 11/04/2022 03:28:42 74.07, 122.88 89.32 11/04/2022 03:28:08 74.09, 122.84 89.35 2.76 34
13 11/04/2022 04:18:09 -74.17, -69.72 90.57 11/04/2022 04:18:49 -74.15, -69.69 90.59 2.64 40



Historial Predications of SNOs between AQUA and METOP-B
